| time (UTC) | temp F | wind direction | speed knots | gust knots | rain 1hr in | rain 24hr in | rain mn in | humidity % | barometer mb |
| 20260502123121 | 73 | 225 | 7.8 | 14.8 | 0.00 | 0.00 | 0.00 | 67 | 1016.6 |
| 20260502121612 | 73 | 213 | 5.2 | 16.5 | 0.00 | 0.00 | 0.00 | 56 | 1016.8 |
| 20260502120109 | 72 | 190 | 8.7 | 14.8 | 0.00 | 0.00 | 0.00 | 70 | 1016.9 |
| 20260502114553 | 72 | 205 | 7.8 | 14.8 | 0.00 | 0.00 | 0.00 | 95 | 1017.2 |
| 20260502113046 | 72 | 233 | 5.2 | 13.0 | 0.00 | 0.00 | 0.00 | 100 | 1017.3 |
| 20260502111541 | 72 | 213 | 5.2 | 13.9 | 0.00 | 0.00 | 0.00 | 100 | 1017.5 |
| 20260502110046 | 71 | 211 | 4.3 | 11.3 | 0.00 | 0.00 | 0.00 | 90 | 1017.7 |
| 20260502104537 | 71 | 210 | 4.3 | 10.4 | 0.00 | 0.00 | 0.00 | 100 | 1017.8 |
| 20260502103034 | 71 | 200 | 7.0 | 12.2 | 0.00 | 0.00 | 0.00 | 100 | 1017.9 |
| 20260502101531 | 70 | 210 | 3.5 | 15.6 | 0.00 | 0.00 | 0.00 | 100 | 1018.2 |
| 20260502091519 | 68 | 200 | 8.7 | 13.9 | 0.00 | 0.00 | 0.00 | 100 | 1018.5 |
| 20260502070048 | 62 | 207 | 5.2 | 8.7 | 0.00 | 0.00 | 0.00 | 100 | 1019.7 |
| 20260502064544 | 61 | 200 | 6.1 | 10.4 | 0.00 | 0.00 | 0.00 | 100 | 1019.8 |
| 20260502063053 | 59 | 163 | 2.6 | 5.2 | 0.00 | 0.00 | 0.00 | 100 | 1019.9 |
| 20260502061537 | 58 | 148 | 1.7 | 5.2 | 0.00 | 0.00 | 0.00 | 100 | 1020.1 |
| 20260502060034 | 57 | 167 | 2.6 | 5.2 | 0.00 | 0.00 | 0.00 | 100 | 1020.2 |
| 20260502054528 | 55 | 163 | 2.6 | 4.3 | 0.00 | 0.00 | 0.00 | 100 | 1020.2 |
| 20260502053024 | 53 | 146 | 2.6 | 3.5 | 0.00 | 0.00 | 0.00 | 100 | 1020.4 |
| 20260502051523 | 51 | 132 | 2.6 | 3.5 | 0.00 | 0.00 | 0.00 | 100 | 1020.5 |
| 20260502050029 | 48 | 130 | 1.7 | 3.5 | 0.00 | 0.00 | 0.00 | 100 | 1020.6 |
| 20260502044511 | 43 | 101 | 0.9 | 2.6 | 0.00 | 0.00 | 0.00 | 100 | 1020.7 |
| 20260502043008 | 39 | 99 | 1.7 | 2.6 | 0.00 | 0.00 | 0.00 | 100 | 1020.8 |
| 20260502041506 | 37 | 76 | 0.9 | 1.7 | 0.00 | 0.00 | 0.00 | 100 | 1020.8 |
| 20260502040004 | 37 | 286 | 0.0 | 0.0 | 0.00 | 0.00 | 0.00 | 100 | 1021.0 |
| 20260502034505 | 37 | 286 | 0.0 | 0.9 | 0.00 | 0.00 | 0.00 | 100 | 1021.1 |
| 20260502033003 | 37 | 286 | 0.0 | 0.0 | 0.00 | 0.00 | 0.00 | 100 | 1021.1 |
| 20260502031559 | 36 | 286 | 0.0 | 0.0 | 0.00 | 0.00 | 0.00 | 100 | 1021.2 |
| 20260502030057 | 36 | 286 | 0.0 | 0.0 | 0.00 | 0.00 | 0.00 | 100 | 1021.4 |
| 20260502024506 | 36 | 286 | 0.0 | 0.0 | 0.00 | 0.00 | 0.00 | 100 | 1021.5 |
| 20260502023005 | 36 | 286 | 0.0 | 0.0 | 0.00 | 0.00 | 0.00 | 100 | 1021.7 |
| 20260502021503 | 36 | 286 | 0.0 | 0.0 | 0.00 | 0.00 | 0.00 | 100 | 1021.8 |
| 20260502020002 | 36 | 286 | 0.0 | 0.0 | 0.00 | 0.00 | 0.00 | 100 | 1021.9 |
| 20260502014559 | 36 | 286 | 0.0 | 0.0 | 0.00 | 0.00 | 0.00 | 100 | 1022.0 |
| 20260502013059 | 37 | 286 | 0.0 | 0.0 | 0.00 | 0.00 | 0.00 | 100 | 1022.1 |
| 20260502011557 | 37 | 286 | 0.0 | 0.0 | 0.00 | 0.00 | 0.00 | 100 | 1022.2 |
| 20260502010104 | 37 | 286 | 0.0 | 0.0 | 0.00 | 0.00 | 0.00 | 100 | 1022.4 |
| 20260502004604 | 37 | 286 | 0.0 | 0.0 | 0.00 | 0.00 | 0.00 | 100 | 1022.6 |
| 20260502003051 | 37 | 286 | 0.0 | 0.0 | 0.00 | 0.00 | 0.00 | 100 | 1022.7 |
| 20260502001550 | 38 | 286 | 0.0 | 0.0 | 0.00 | 0.00 | 0.00 | 100 | 1022.7 |
| 20260502000050 | 38 | 286 | 0.0 | 0.0 | 0.00 | 0.00 | 0.00 | 100 | 1022.7 |
| 20260501234546 | 39 | 286 | 0.0 | 0.0 | 0.00 | 0.00 | 0.00 | 100 | 1022.8 |
| 20260501233048 | 39 | 286 | 0.0 | 0.0 | 0.00 | 0.00 | 0.00 | 100 | 1022.9 |
| 20260501231543 | 40 | 286 | 0.0 | 0.0 | 0.00 | 0.00 | 0.00 | 100 | 1023.0 |
| 20260501230039 | 40 | 286 | 0.0 | 0.0 | 0.00 | 0.00 | 0.00 | 100 | 1023.2 |
| 20260501224538 | 41 | 286 | 0.0 | 0.0 | 0.00 | 0.00 | 0.00 | 100 | 1023.3 |
| 20260501223035 | 41 | 286 | 0.0 | 0.0 | 0.00 | 0.00 | 0.00 | 100 | 1023.4 |
| 20260501221531 | 42 | 286 | 0.0 | 0.0 | 0.00 | 0.00 | 0.00 | 100 | 1023.5 |
| 20260501220035 | 42 | 286 | 0.0 | 0.0 | 0.00 | 0.00 | 0.00 | 100 | 1023.5 |
| 20260501214529 | 43 | 286 | 0.0 | 0.0 | 0.00 | 0.00 | 0.00 | 100 | 1023.6 |
| 20260501213041 | 44 | 286 | 0.0 | 0.0 | 0.00 | 0.00 | 0.00 | 100 | 1023.7 |
| 20260501211528 | 45 | 286 | 0.0 | 0.0 | 0.00 | 0.00 | 0.00 | 100 | 1023.8 |
| 20260501210038 | 45 | 286 | 0.0 | 0.0 | 0.00 | 0.00 | 0.00 | 100 | 1023.8 |
| 20260501204527 | 45 | 286 | 0.0 | 0.0 | 0.00 | 0.00 | 0.00 | 100 | 1023.9 |
| 20260501203027 | 46 | 286 | 0.0 | 0.0 | 0.00 | 0.00 | 0.00 | 100 | 1023.9 |
| 20260501201530 | 48 | 286 | 0.0 | 0.0 | 0.00 | 0.00 | 0.00 | 100 | 1024.0 |
| 20260501200022 | 48 | 286 | 0.0 | 0.0 | 0.00 | 0.00 | 0.00 | 100 | 1024.0 |
| 20260501194527 | 50 | 286 | 0.0 | 0.0 | 0.00 | 0.00 | 0.00 | 100 | 1024.1 |
| 20260501193024 | 52 | 286 | 0.0 | 0.0 | 0.00 | 0.00 | 0.00 | 100 | 1024.1 |
| 20260501191524 | 54 | 286 | 0.0 | 0.0 | 0.00 | 0.00 | 0.00 | 100 | 1024.0 |
| 20260501190020 | 57 | 286 | 0.0 | 0.0 | 0.00 | 0.00 | 0.00 | 100 | 1024.1 |
| 20260501184521 | 59 | 286 | 0.0 | 0.0 | 0.00 | 0.00 | 0.00 | 100 | 1024.1 |
| 20260501183019 | 60 | 286 | 0.0 | 0.0 | 0.00 | 0.00 | 0.00 | 100 | 1024.1 |
| 20260501181517 | 61 | 286 | 0.0 | 0.9 | 0.00 | 0.00 | 0.00 | 100 | 1024.2 |
| 20260501180042 | 62 | 286 | 0.0 | 1.7 | 0.00 | 0.00 | 0.00 | 100 | 1024.1 |
| 20260501174522 | 63 | 286 | 0.9 | 2.6 | 0.00 | 0.00 | 0.00 | 100 | 1024.2 |
| 20260501173019 | 64 | 290 | 1.7 | 3.5 | 0.00 | 0.00 | 0.00 | 100 | 1024.3 |
| 20260501171515 | 64 | 284 | 0.9 | 4.3 | 0.00 | 0.00 | 0.00 | 98 | 1024.2 |
| 20260501170013 | 65 | 298 | 2.6 | 4.3 | 0.00 | 0.00 | 0.00 | 92 | 1024.4 |
| 20260501164519 | 65 | 287 | 2.6 | 7.0 | 0.00 | 0.00 | 0.00 | 85 | 1024.5 |
| 20260501163022 | 66 | 294 | 1.7 | 5.2 | 0.00 | 0.00 | 0.00 | 88 | 1024.5 |
| 20260501161523 | 67 | 296 | 2.6 | 7.0 | 0.00 | 0.00 | 0.00 | 80 | 1024.7 |
| 20260501160008 | 68 | 303 | 4.3 | 7.8 | 0.00 | 0.00 | 0.00 | 75 | 1024.9 |
| 20260501154506 | 68 | 300 | 3.5 | 7.0 | 0.00 | 0.00 | 0.00 | 75 | 1025.1 |
| 20260501153005 | 69 | 296 | 2.6 | 6.1 | 0.00 | 0.00 | 0.00 | 73 | 1025.2 |
| 20260501151608 | 69 | 309 | 4.3 | 7.8 | 0.00 | 0.00 | 0.00 | 74 | 1025.3 |
| 20260501144558 | 70 | 294 | 3.5 | 6.1 | 0.00 | 0.00 | 0.00 | 77 | 1025.5 |
| 20260501144504 | 70 | 294 | 2.6 | 6.1 | 0.00 | 0.00 | 0.00 | 81 | 1025.6 |
| 20260501143057 | 70 | 291 | 3.5 | 7.8 | 0.00 | 0.00 | 0.00 | 76 | 1025.6 |
| 20260501141558 | 71 | 301 | 2.6 | 7.0 | 0.00 | 0.00 | 0.00 | 81 | 1025.7 |
| 20260501140054 | 71 | 281 | 3.5 | 7.0 | 0.00 | 0.00 | 0.00 | 80 | 1025.7 |
| 20260501134552 | 71 | 267 | 2.6 | 6.1 | 0.00 | 0.00 | 0.00 | 82 | 1025.7 |
| 20260501133054 | 70 | 283 | 4.3 | 8.7 | 0.00 | 0.00 | 0.00 | 79 | 1025.9 |